Location: Cantaing
(50.1487°N, 3.1675°E)
Time: 08:44:32
(UTC+00:00)

SeaSat 1 - Pass Details

Date: 14 January 2026
Orbit: 737 x 740 km, 108.0° (Epoch: 17 February)

Event Time Altitude Azimuth Distance (km) Brightness Sun altitude
Rises 06:47:46 0° 27° (NNE) 3,185 5.8 -8.4°
Reaches altitude 10° 06:50:03 10° 24° (NNE) 2,259 5.0 -8.1°
Maximum altitude 06:54:52 59° 306° (NW) 857 2.5 -7.3°
Drops below altitude 10° 06:59:40 10° 228° (SW) 2,246 4.7 -6.7°
Sets 07:01:56 0° 224° (SW) 3,166 5.5 -6.3°
